Waukegan, IL

5:55 PM CDT on October 19, 2019 (GMT -0500)
Waukegan Regional

Weather History for KUGN - September, 2019

Change the Weather History Date:

Friday, September 20, 2019

  Actual Average Record
Temperature  
Mean Temperature 70 °F 60 °F  
Max Temperature 79 °F 70 °F 86 °F (2017)
Min Temperature 62 °F 51 °F 40 °F (2006)
Degree Days  
Heating Degree Days 0 6  
Month to date heating degree days 14 60  
Since 1 July heating degree days 22 88  
Cooling Degree Days 6 1  
Month to date cooling degree days 72 48  
Year to date cooling degree days 560 550  
Growing Degree Days 20 (Base 50)    
Moisture  
Dew Point 64 °F    
Average Humidity 84    
Maximum Humidity 96    
Minimum Humidity 67    
Precipitation  
Precipitation 0.00 in 0.13 in 0.78 in (2014)
Month to date precipitation 7.75 2.21  
Year to date precipitation 35.71 26.66  
Sea Level Pressure  
Sea Level Pressure 30.08 in    
Wind  
Wind Speed 1 mph ()    
Max Wind Speed 9 mph    
Max Gust Speed 17 mph    
Visibility 6.1 miles    
Events      
T = Trace of Precipitation, MM = Missing Value Source: Averaged Metar Reports

Daily Weather History Graph

Daily Weather History Graph

Search for Another Location

Airport or City:

Astronomy

Sep. 20, 2019 Rise Set
Actual Time 6:36 AM CDT 6:52 PM CDT
Civil Twilight 6:08 AM CDT 7:20 PM CDT
Nautical Twilight 5:35 AM CDT 7:53 PM CDT
Astronomical Twilight 5:01 AM CDT 8:27 PM CDT
Moon 10:35 PM CDT (9/20) 12:47 PM CDT (9/20)
Length of Visible Light 13h 12m
Length of Day
12h 16m
Waning Gibbous, 65% of the Moon is Illuminated
Sep 20
Waning Gibbous
Sep 21
Last Quarter
Sep 28
New
Oct 5
First Quarter
Oct 13
Full

Hourly Weather History & Observations

Time (CDT) Temp. Dew Point Humidity Pressure Visibility Wind Dir Wind Speed Gust Speed Precip Events Conditions
12:55 AM 66.9 °F 64.0 °F 90% 30.06 in 8.0 mi Calm Calm - 0.00 in   Mostly Cloudy
1:55 AM 64.9 °F 63.0 °F 93% 30.06 in 4.0 mi Calm Calm - N/A   Clear
2:55 AM 64.0 °F 62.1 °F 93% 30.06 in 4.0 mi Calm Calm - N/A   Clear
3:55 AM 63.0 °F 61.0 °F 93% 30.06 in 2.5 mi Calm Calm - N/A   Clear
4:21 AM 64.0 °F 62.1 °F 93% 30.09 in 3.0 mi Calm Calm - N/A   Clear
4:33 AM 63.0 °F 61.0 °F 93% 30.09 in 2.5 mi Calm Calm - N/A   Clear
4:55 AM 63.0 °F 61.0 °F 93% 30.07 in 2.5 mi Calm Calm - N/A   Clear
5:09 AM 63.0 °F 61.0 °F 93% 30.09 in 4.0 mi Calm Calm - N/A   Clear
5:44 AM 63.0 °F 61.0 °F 93% 30.10 in 10.0 mi Calm Calm - N/A   Clear
5:55 AM 62.1 °F 60.1 °F 93% 30.08 in 10.0 mi Calm Calm - N/A   Clear
6:55 AM 64.0 °F 62.1 °F 93% 30.09 in 10.0 mi Calm Calm - N/A   Mostly Cloudy
7:55 AM 69.1 °F 64.0 °F 84% 30.10 in 5.0 mi Calm Calm - N/A   Haze
8:55 AM 72.0 °F 64.0 °F 76% 30.11 in 7.0 mi Calm Calm - N/A   Overcast
9:55 AM 73.0 °F 64.9 °F 76% 30.11 in 8.0 mi Calm Calm - N/A   Clear
10:55 AM 77.0 °F 66.0 °F 69% 30.10 in 10.0 mi Calm Calm - N/A   Partly Cloudy
11:55 AM 77.0 °F 66.9 °F 71% 30.09 in 10.0 mi Calm Calm - N/A   Clear
12:55 PM 78.1 °F 66.9 °F 68% 30.09 in 9.0 mi SE 5.8 mph - N/A   Clear
1:55 PM 78.1 °F 66.9 °F 68% 30.07 in 9.0 mi SE 8.1 mph - N/A   Mostly Cloudy
2:55 PM 78.1 °F 68.0 °F 71% 30.06 in 8.0 mi SE 9.2 mph - N/A   Clear
3:55 PM 77.0 °F 66.9 °F 71% 30.06 in 7.0 mi SSE 5.8 mph - N/A   Clear
4:55 PM 75.9 °F 66.0 °F 71% 30.07 in 7.0 mi SE 8.1 mph - N/A   Clear
5:55 PM 75.0 °F 64.9 °F 71% 30.07 in 8.0 mi SSE 3.5 mph - N/A   Clear
6:55 PM 72.0 °F 64.9 °F 78% 30.06 in 8.0 mi Calm Calm - N/A   Clear
7:55 PM 69.1 °F 64.9 °F 87% 30.07 in 8.0 mi Calm Calm - N/A   Clear
8:55 PM 68.0 °F 64.0 °F 87% 30.08 in 6.0 mi ESE 3.5 mph - N/A   Clear
9:55 PM 66.9 °F 64.0 °F 90% 30.08 in 3.0 mi East 3.5 mph - N/A   Clear
10:47 PM 68.0 °F 64.9 °F 90% 30.11 in 2.5 mi Calm Calm - N/A   Clear
10:55 PM 66.0 °F 64.9 °F 96% 30.08 in 2.5 mi Calm Calm - N/A   Clear
11:48 PM 66.9 °F 64.9 °F 93% 30.09 in 1.8 mi Calm Calm - N/A   Clear
11:55 PM 66.9 °F 64.9 °F 93% 30.06 in 1.8 mi Calm Calm - N/A   Clear